Regional Weather Roundup
Issued by NWS

Home | Current Version | Previous Version | Text Only | Print | Product List | Glossary Off
Versions: 1 2 3 4 5 6 7 8 9 10 11 12 13 14 15 16 17 18 19 20 21 22 23 24 25 26 27 28 29 30 31 32 33 34 35 36 37 38 39 40 41 42 43 44 45 46 47 48 49 50

000
ASUS43 KLMK 281502
RWRKY
KENTUCKY REGIONAL WEATHER ROUNDUP
NATIONAL WEATHER SERVICE LOUISVILLE KY
1100 AM EDT SUN AUG 28 2016

NOTE "FAIR" INDICATES FEW OR NO CLOUDS BELOW 12,000 FEET
WITH NO SIGNIFICANT WEATHER AND/OR OBSTRUCTIONS TO VISIBILITY.

KYZ001>023-026-027-061>063-070>075-281600-
WESTERN AND SOUTH CENTRAL KENTUCKY

CITY           SKY/WX    TMP DP  RH WIND       PRES   REMARKS
PADUCAH        SUNNY     85  73  67 E5        30.16R HX  91
HENDERSON      SUNNY     84  75  74 E5        30.16S HX  92
OWENSBORO      SUNNY     87  75  67 VRB5      30.19R HX  96
HOPKINSVILLE   SUNNY     83  74  75 VRB5      30.18R
BOWLING GREEN  SUNNY     85  74  69 CALM      30.19R HX  92
GLASGOW        SUNNY     84  71  65 CALM      30.20S
$$

KYZ024-025-028>034-038-045-046-053-281600-
NORTH CENTRAL KENTUCKY

CITY           SKY/WX    TMP DP  RH WIND       PRES   REMARKS
LOUISVILLE/SDF MOSUNNY   86  73  65 CALM      30.19S HX  93
LOUISVILLE/LOU SUNNY     85  72  65 CALM      30.20R HX  91
FORT KNOX      SUNNY     82  73  74 E5        30.19S
$$

KYZ035>037-039>044-047>052-055>060-089>105-281600-
NORTHEAST KENTUCKY

CITY           SKY/WX    TMP DP  RH WIND       PRES   REMARKS
LEXINGTON      SUNNY     85  73  67 CALM      30.22R HX  91
COVINGTON      MOSUNNY   85  71  63 N6        30.22S HX  90
FRANKFORT      SUNNY     84  73  69 CALM      30.20R HX  90
$$

KYZ054-064>069-076>088-106>120-281600-
SOUTHEAST KENTUCKY

CITY           SKY/WX    TMP DP  RH WIND       PRES   REMARKS
JACKSON        SUNNY     83  73  72 CALM      30.24R
LONDON         MOSUNNY   82  69  64 S5        30.23S
SOMERSET       SUNNY     77  68  73 CALM      30.24R
MIDDLESBORO    SUNNY     79  73  81 CALM      30.24S
MONTICELLO     MOSUNNY  N/A N/A N/A NE7       30.23S
$$




USA.gov is the U.S. government's official web portal to all federal, state and local government web resources and services.